09-09-2022, 00:00:06,    186,    0.0,   12.5,   0.00,   0.00, 1000.6,   98.6, -999.0
09-09-2022, 00:00:16,    186,    0.0,   12.4,   0.00,   0.00, 1000.5,   98.6, -999.0
09-09-2022, 00:00:26,    185,    0.0,   12.5,   0.00,   0.00, 1000.5,   98.6, -999.0
09-09-2022, 00:00:36,    186,    0.0,   12.6,   0.00,   0.00, 1000.6,   98.6, -999.0
09-09-2022, 00:00:46,    186,    0.0,   12.6,   0.00,   0.00, 1000.5,   98.6, -999.0
09-09-2022, 00:00:56,    186,    0.0,   12.6,   0.00,   0.00, 1000.5,   98.7, -999.0
09-09-2022, 00:01:05,    186,    0.0,   12.5,   0.00,   0.00, 1000.6,   98.6, -999.0
09-09-2022, 00:01:16,    186,    0.0,   12.5,   0.00,   0.00, 1000.6,   98.7, -999.0
09-09-2022, 00:01:26,    186,    0.0,   12.6,   0.00,   0.00, 1000.5,   98.6, -999.0
09-09-2022, 00:01:35,    186,    0.0,   12.7,   0.00,   0.00, 1000.5,   98.7, -999.0
09-09-2022, 00:01:45,    186,    0.0,   12.5,   0.00,   0.00, 1000.6,   98.5, -999.0
09-09-2022, 00:01:55,    184,    0.0,   12.5,   0.00,   0.00, 1000.6,   98.6, -999.0
09-09-2022, 00:02:05,    186,    0.0,   12.6,   0.00,   0.00, 1000.6,   98.7, -999.0
09-09-2022, 00:02:15,    185,    0.0,   12.6,   0.00,   0.00, 1000.6,   98.6, -999.0
09-09-2022, 00:02:25,    186,    0.0,   12.6,   0.00,   0.01, 1000.6,   98.6, -999.0
09-09-2022, 00:02:35,    186,    0.0,   12.6,   0.00,   0.00, 1000.6,   98.6, -999.0
09-09-2022, 00:02:45,    186,    0.0,   12.5,   0.00,   0.00, 1000.6,   98.6, -999.0
09-09-2022, 00:02:55,    186,    0.0,   12.5,   0.00,   0.00, 1000.6,   98.6, -999.0
09-09-2022, 00:03:05,    186,    0.0,   12.6,   0.00,   0.00, 1000.6,   98.7, -999.0
09-09-2022, 00:03:15,    185,    0.0,   12.6,   0.00,   0.00, 1000.6,   98.6, -999.0
09-09-2022, 00:03:25,    186,    0.0,   12.5,   0.00,   0.00, 1000.6,   98.7, -999.0
09-09-2022, 00:03:35,    186,    0.0,   12.5,   0.00,   0.00, 1000.6,   98.6, -999.0
09-09-2022, 00:03:45,    187,    0.0,   12.5,   0.00,   0.00, 1000.6,   98.6, -999.0
09-09-2022, 00:03:55,    186,    0.0,   12.6,   0.00,   0.01, 1000.6,   98.6, -999.0
09-09-2022, 00:04:05,    186,    0.0,   12.5,   0.00,   0.00, 1000.6,   98.6, -999.0
09-09-2022, 00:04:14,    186,    0.0,   12.5,   0.00,   0.00, 1000.6,   98.7, -999.0
09-09-2022, 00:04:25,    186,    0.0,   12.5,   0.00,   0.00, 1000.6,   98.6, -999.0
09-09-2022, 00:04:34,    186,    0.0,   12.5,   0.00,   0.00, 1000.5,   98.6, -999.0
09-09-2022, 00:04:44,    186,    0.0,   12.6,   0.00,   0.00, 1000.5,   98.7, -999.0
09-09-2022, 00:04:55,    186,    0.0,   12.6,   0.00,   0.01, 1000.5,   98.6, -999.0
09-09-2022, 00:05:04,    186,    0.0,   12.6,   0.00,   0.00, 1000.6,   98.7, -999.0
09-09-2022, 00:05:14,    182,    0.0,   12.5,   0.00,   0.00, 1000.6,   98.7, -999.0
09-09-2022, 00:05:24,    185,    0.0,   12.6,   0.00,   0.00, 1000.6,   98.6, -999.0
09-09-2022, 00:05:34,    186,    0.0,   12.5,   0.00,   0.00, 1000.6,   98.6, -999.0
09-09-2022, 00:05:44,    185,    0.0,   12.7,   0.00,   0.00, 1000.6,   98.6, -999.0
09-09-2022, 00:05:54,    186,    0.0,   12.6,   0.00,   0.01, 1000.6,   98.6, -999.0
09-09-2022, 00:06:04,    186,    0.0,   12.6,   0.00,   0.00, 1000.6,   98.6, -999.0
09-09-2022, 00:06:14,    185,    0.0,   12.6,   0.00,   0.00, 1000.6,   98.6, -999.0
09-09-2022, 00:06:24,    186,    0.0,   12.6,   0.00,   0.00, 1000.6,   98.6, -999.0
09-09-2022, 00:06:34,    186,    0.0,   12.6,   0.00,   0.01, 1000.6,   98.6, -999.0
09-09-2022, 00:06:43,    186,    0.0,   12.6,   0.00,   0.00, 1000.6,   98.6, -999.0
09-09-2022, 00:06:54,    186,    0.0,   12.6,   0.00,   0.00, 1000.6,   98.7, -999.0
09-09-2022, 00:07:04,    186,    0.0,   12.6,   0.00,   0.01, 1000.6,   98.6, -999.0
09-09-2022, 00:07:13,    186,    0.0,   12.6,   0.00,   0.00, 1000.6,   98.6, -999.0
09-09-2022, 00:07:24,    186,    0.0,   12.6,   0.00,   0.01, 1000.6,   98.6, -999.0
09-09-2022, 00:07:34,    186,    0.0,   12.7,   0.00,   0.00, 1000.6,   98.7, -999.0
09-09-2022, 00:07:43,    186,    0.0,   12.6,   0.00,   0.01, 1000.6,   98.7, -999.0
09-09-2022, 00:07:53,    186,    0.0,   12.5,   0.00,   0.00, 1000.6,   98.6, -999.0
09-09-2022, 00:08:03,    185,    0.0,   12.4,   0.00,   0.01, 1000.6,   98.6, -999.0
09-09-2022, 00:08:13,    186,    0.0,   12.7,   0.00,   0.00, 1000.6,   98.6, -999.0
09-09-2022, 00:08:23,    186,    0.0,   12.5,   0.00,   0.01, 1000.6,   98.6, -999.0
09-09-2022, 00:08:33,    186,    0.0,   12.4,   0.00,   0.00, 1000.6,   98.6, -999.0
09-09-2022, 00:08:43,    186,    0.0,   12.5,   0.00,   0.00, 1000.6,   98.7, -999.0
09-09-2022, 00:08:53,    186,    0.0,   12.5,   0.00,   0.00, 1000.6,   98.6, -999.0
09-09-2022, 00:09:03,    186,    0.0,   12.6,   0.00,   0.01, 1000.6,   98.6, -999.0
09-09-2022, 00:09:13,    186,    0.0,   12.6,   0.00,   0.00, 1000.6,   98.6, -999.0
09-09-2022, 00:09:23,    186,    0.0,   12.6,   0.00,   0.00, 1000.6,   98.6, -999.0
09-09-2022, 00:09:33,    186,    0.0,   12.7,   0.00,   0.01, 1000.6,   98.7, -999.0
09-09-2022, 00:09:43,    186,    0.0,   12.6,   0.00,   0.00, 1000.6,   98.6, -999.0
09-09-2022, 00:09:53,    186,    0.0,   12.6,   0.00,   0.00, 1000.6,   98.6, -999.0
09-09-2022, 00:10:03,    186,    0.0,   12.5,   0.00,   0.01, 1000.6,   98.5, -999.0
09-09-2022, 00:10:13,    186,    0.0,   12.6,   0.00,   0.00, 1000.6,   98.6, -999.0
09-09-2022, 00:10:22,    186,    0.0,   12.6,   0.00,   0.00, 1000.6,   98.6, -999.0
09-09-2022, 00:10:33,    186,    0.0,   12.5,   0.00,   0.01, 1000.6,   98.6, -999.0
09-09-2022, 00:10:42,    186,    0.0,   12.6,   0.00,   0.00, 1000.6,   98.6, -999.0
09-09-2022, 00:10:52,    186,    0.0,   12.5,   0.00,   0.00, 1000.6,   98.6, -999.0
09-09-2022, 00:11:02,    186,    0.0,   12.5,   0.00,   0.01, 1000.5,   98.6, -999.0
09-09-2022, 00:11:12,    186,    0.0,   12.5,   0.00,   0.00, 1000.6,   98.6, -999.0
09-09-2022, 00:11:22,    186,    0.0,   12.5,   0.00,   0.00, 1000.6,   98.7, -999.0
09-09-2022, 00:11:32,    186,    0.0,   12.6,   0.00,   0.00, 1000.6,   98.7, -999.0
09-09-2022, 00:11:42,    186,    0.0,   12.5,   0.00,   0.01, 1000.5,   98.7, -999.0
09-09-2022, 00:11:52,    187,    0.0,   12.5,   0.00,   0.00, 1000.6,   98.6, -999.0
09-09-2022, 00:12:02,    186,    0.0,   12.5,   0.00,   0.00, 1000.6,   98.6, -999.0
09-09-2022, 00:12:12,    186,    0.0,   12.5,   0.00,   0.01, 1000.6,   98.6, -999.0
09-09-2022, 00:12:22,    186,    0.0,   12.6,   0.00,   0.00, 1000.6,   98.6, -999.0
09-09-2022, 00:12:32,    186,    0.0,   12.6,   0.00,   0.00, 1000.6,   98.6, -999.0
09-09-2022, 00:12:42,    186,    0.0,   12.5,   0.00,   0.01, 1000.6,   98.6, -999.0
09-09-2022, 00:12:51,    186,    0.0,   12.6,   0.00,   0.00, 1000.6,   98.7, -999.0
09-09-2022, 00:13:02,    186,    0.0,   12.6,   0.00,   0.01, 1000.6,   98.6, -999.0
09-09-2022, 00:13:12,    186,    0.0,   12.7,   0.00,   0.00, 1000.6,   98.6, -999.0
09-09-2022, 00:13:21,    198,    0.0,   12.7,   0.00,   0.01, 1000.6,   98.6, -999.0
09-09-2022, 00:13:31,    314,    0.0,   12.6,   0.00,   0.00, 1000.6,   98.7, -999.0
09-09-2022, 00:13:42,    314,    0.0,   12.6,   0.00,   0.01, 1000.6,   98.6, -999.0
09-09-2022, 00:13:51,    311,    0.0,   12.6,   0.00,   0.00, 1000.6,   98.7, -999.0
09-09-2022, 00:14:01,    312,    0.0,   12.6,   0.00,   0.01, 1000.6,   98.6, -999.0
09-09-2022, 00:14:11,    312,    0.0,   12.6,   0.00,   0.01, 1000.6,   98.6, -999.0
09-09-2022, 00:14:21,    312,    0.0,   12.6,   0.00,   0.00, 1000.6,   98.7, -999.0
09-09-2022, 00:14:31,    312,    0.0,   12.6,   0.00,   0.01, 1000.6,   98.6, -999.0
09-09-2022, 00:14:41,    312,    0.0,   12.7,   0.00,   0.02, 1000.6,   98.7, -999.0
09-09-2022, 00:14:51,    312,    0.0,   12.7,   0.00,   0.01, 1000.6,   98.6, -999.0
09-09-2022, 00:15:01,    312,    0.0,   12.7,   0.00,   0.01, 1000.6,   98.6, -999.0
09-09-2022, 00:15:11,    312,    0.0,   12.6,   0.00,   0.00, 1000.6,   98.6, -999.0
09-09-2022, 00:15:21,    312,    0.0,   12.6,   0.00,   0.01, 1000.6,   98.6, -999.0
09-09-2022, 00:15:31,    312,    0.0,   12.6,   0.00,   0.01, 1000.6,   98.6, -999.0
09-09-2022, 00:15:41,    312,    0.0,   12.6,   0.00,   0.00, 1000.6,   98.6, -999.0
09-09-2022, 00:15:51,    312,    0.0,   12.6,   0.00,   0.01, 1000.5,   98.6, -999.0
09-09-2022, 00:16:00,    312,    0.0,   12.7,   0.00,   0.00, 1000.6,   98.6, -999.0
09-09-2022, 00:16:11,    312,    0.0,   12.6,   0.00,   0.00, 1000.5,   98.6, -999.0
09-09-2022, 00:16:21,    312,    0.0,   12.5,   0.00,   0.01, 1000.6,   98.6, -999.0
09-09-2022, 00:16:30,    312,    0.0,   12.6,   0.00,   0.00, 1000.6,   98.7, -999.0
09-09-2022, 00:16:41,    311,    0.0,   12.6,   0.00,   0.00, 1000.6,   98.6, -999.0
09-09-2022, 00:16:50,    312,    0.0,   12.6,   0.00,   0.00, 1000.6,   98.6, -999.0
09-09-2022, 00:17:00,    312,    0.0,   12.6,   0.00,   0.01, 1000.6,   98.6, -999.0
09-09-2022, 00:17:10,    312,    0.0,   12.5,   0.00,   0.00, 1000.6,   98.6, -999.0
09-09-2022, 00:17:20,    311,    0.0,   12.6,   0.00,   0.00, 1000.6,   98.6, -999.0
09-09-2022, 00:17:30,    312,    0.0,   12.6,   0.00,   0.01, 1000.6,   98.6, -999.0
09-09-2022, 00:17:40,    312,    0.0,   12.5,   0.00,   0.00, 1000.6,   98.7, -999.0
09-09-2022, 00:17:50,    312,    0.0,   12.6,   0.00,   0.01, 1000.6,   98.7, -999.0
09-09-2022, 00:18:00,    312,    0.0,   12.6,   0.00,   0.00, 1000.6,   98.6, -999.0
09-09-2022, 00:18:10,    312,    0.0,   12.6,   0.00,   0.00, 1000.6,   98.7, -999.0
09-09-2022, 00:18:20,    312,    0.0,   12.6,   0.00,   0.00, 1000.6,   98.6, -999.0
09-09-2022, 00:18:30,    312,    0.0,   12.5,   0.00,   0.00, 1000.6,   98.7, -999.0
09-09-2022, 00:18:40,    312,    0.0,   12.6,   0.00,   0.01, 1000.6,   98.6, -999.0
09-09-2022, 00:18:50,    312,    0.0,   12.5,   0.00,   0.00, 1000.6,   98.6, -999.0
09-09-2022, 00:19:00,    312,    0.0,   12.6,   0.00,   0.00, 1000.6,   98.6, -999.0
09-09-2022, 00:19:09,    312,    0.0,   12.6,   0.00,   0.00, 1000.6,   98.6, -999.0
09-09-2022, 00:19:20,    312,    0.0,   12.5,   0.00,   0.01, 1000.6,   98.6, -999.0
09-09-2022, 00:19:29,    312,    0.0,   12.5,   0.00,   0.00, 1000.6,   98.7, -999.0
09-09-2022, 00:19:39,    312,    0.0,   12.5,   0.00,   0.00, 1000.6,   98.7, -999.0
09-09-2022, 00:19:50,    312,    0.0,   12.5,   0.00,   0.01, 1000.6,   98.6, -999.0
09-09-2022, 00:19:59,    312,    0.0,   12.6,   0.00,   0.01, 1000.6,   98.6, -999.0
09-09-2022, 00:20:09,    312,    0.0,   12.7,   0.00,   0.00, 1000.6,   98.6, -999.0
09-09-2022, 00:20:19,    312,    0.0,   12.5,   0.00,   0.01, 1000.6,   98.6, -999.0
09-09-2022, 00:20:29,    312,    0.0,   12.5,   0.00,   0.00, 1000.6,   98.7, -999.0
09-09-2022, 00:20:39,    312,    0.0,   12.6,   0.00,   0.01, 1000.6,   98.6, -999.0
09-09-2022, 00:20:49,    312,    0.0,   12.6,   0.00,   0.00, 1000.6,   98.7, -999.0
09-09-2022, 00:20:59,    312,    0.0,   12.6,   0.00,   0.00, 1000.6,   98.6, -999.0
09-09-2022, 00:21:09,    312,    0.0,   12.6,   0.00,   0.01, 1000.6,   98.7, -999.0
09-09-2022, 00:21:19,    311,    0.0,   12.5,   0.00,   0.00, 1000.6,   98.6, -999.0
09-09-2022, 00:21:29,    312,    0.0,   12.6,   0.00,   0.00, 1000.6,   98.6, -999.0
09-09-2022, 00:21:39,    312,    0.0,   12.6,   0.00,   0.01, 1000.6,   98.6, -999.0
09-09-2022, 00:21:49,    312,    0.0,   12.6,   0.00,   0.00, 1000.6,   98.6, -999.0
09-09-2022, 00:21:59,    312,    0.0,   12.6,   0.00,   0.00, 1000.6,   98.6, -999.0
09-09-2022, 00:22:08,    312,    0.0,   12.5,   0.00,   0.01, 1000.6,   98.5, -999.0
09-09-2022, 00:22:18,    312,    0.0,   12.5,   0.00,   0.00, 1000.6,   98.6, -999.0
09-09-2022, 00:22:29,    312,    0.0,   12.6,   0.00,   0.00, 1000.6,   98.6, -999.0
09-09-2022, 00:22:38,    312,    0.0,   12.5,   0.00,   0.01, 1000.6,   98.6, -999.0
09-09-2022, 00:22:48,    312,    0.0,   12.5,   0.00,   0.00, 1000.6,   98.6, -999.0
09-09-2022, 00:22:59,    311,    0.0,   12.5,   0.00,   0.00, 1000.6,   98.6, -999.0
09-09-2022, 00:23:08,    312,    0.0,   12.5,   0.00,   0.01, 1000.6,   98.7, -999.0
09-09-2022, 00:23:18,    312,    0.0,   12.6,   0.00,   0.00, 1000.6,   98.6, -999.0
09-09-2022, 00:23:28,    312,    0.0,   12.5,   0.00,   0.00, 1000.6,   98.6, -999.0
09-09-2022, 00:23:38,    312,    0.0,   12.5,   0.00,   0.00, 1000.6,   98.6, -999.0
09-09-2022, 00:23:48,    312,    0.0,   12.5,   0.00,   0.01, 1000.6,   98.6, -999.0
09-09-2022, 00:23:58,    312,    0.0,   12.5,   0.00,   0.00, 1000.6,   98.7, -999.0
09-09-2022, 00:24:08,    312,    0.0,   12.5,   0.00,   0.00, 1000.6,   98.7, -999.0
09-09-2022, 00:24:18,    312,    0.0,   12.6,   0.00,   0.00, 1000.6,   98.6, -999.0
09-09-2022, 00:24:28,    312,    0.0,   12.5,   0.00,   0.01, 1000.6,   98.6, -999.0
09-09-2022, 00:24:38,    312,    0.0,   12.5,   0.00,   0.00, 1000.6,   98.7, -999.0
09-09-2022, 00:24:48,    312,    0.0,   12.6,   0.00,   0.00, 1000.6,   98.6, -999.0
09-09-2022, 00:24:58,    312,    0.0,   12.7,   0.00,   0.00, 1000.6,   98.6, -999.0
09-09-2022, 00:25:08,    312,    0.0,   12.6,   0.00,   0.00, 1000.6,   98.6, -999.0
09-09-2022, 00:25:17,    312,    0.0,   12.6,   0.00,   0.01, 1000.6,   98.6, -999.0
09-09-2022, 00:25:28,    312,    0.0,   12.5,   0.00,   0.00, 1000.6,   98.6, -999.0
09-09-2022, 00:25:38,    312,    0.0,   12.5,   0.00,   0.00, 1000.6,   98.7, -999.0
09-09-2022, 00:25:47,    312,    0.0,   12.5,   0.00,   0.00, 1000.6,   98.6, -999.0
09-09-2022, 00:25:57,    312,    0.0,   12.5,   0.00,   0.00, 1000.6,   98.6, -999.0
09-09-2022, 00:26:07,    312,    0.0,   12.4,   0.00,   0.01, 1000.6,   98.7, -999.0
09-09-2022, 00:26:17,    312,    0.0,   12.5,   0.00,   0.00, 1000.6,   98.6, -999.0
09-09-2022, 00:26:27,    312,    0.0,   12.5,   0.00,   0.00, 1000.6,   98.6, -999.0
09-09-2022, 00:26:37,    312,    0.0,   12.5,   0.00,   0.00, 1000.6,   98.7, -999.0
09-09-2022, 00:26:47,    312,    0.0,   12.5,   0.00,   0.00, 1000.6,   98.6, -999.0
09-09-2022, 00:26:57,    312,    0.0,   12.5,   0.00,   0.00, 1000.6,   98.6, -999.0
09-09-2022, 00:27:07,    312,    0.0,   12.5,   0.00,   0.00, 1000.6,   98.6, -999.0
09-09-2022, 00:27:17,    312,    0.0,   12.5,   0.00,   0.00, 1000.6,   98.6, -999.0
09-09-2022, 00:27:27,    312,    0.0,   12.5,   0.00,   0.00, 1000.6,   98.7, -999.0
09-09-2022, 00:27:37,    312,    0.0,   12.4,   0.00,   0.00, 1000.6,   98.6, -999.0
09-09-2022, 00:27:47,    312,    0.0,   12.5,   0.00,   0.00, 1000.6,   98.6, -999.0
09-09-2022, 00:27:57,    312,    0.0,   12.6,   0.00,   0.00, 1000.6,   98.6, -999.0
09-09-2022, 00:28:07,    312,    0.0,   12.5,   0.00,   0.00, 1000.6,   98.6, -999.0
09-09-2022, 00:28:16,    312,    0.0,   12.5,   0.00,   0.00, 1000.6,   98.6, -999.0
09-09-2022, 00:28:26,    312,    0.0,   12.5,   0.00,   0.00, 1000.6,   98.6, -999.0
09-09-2022, 00:28:37,    312,    0.0,   12.4,   0.00,   0.00, 1000.6,   98.6, -999.0
09-09-2022, 00:28:46,    312,    0.0,   12.4,   0.00,   0.01, 1000.6,   98.6, -999.0
09-09-2022, 00:28:56,    312,    0.0,   12.4,   0.00,   0.00, 1000.6,   98.6, -999.0
09-09-2022, 00:29:06,    312,    0.0,   12.4,   0.00,   0.00, 1000.6,   98.6, -999.0
09-09-2022, 00:29:16,    312,    0.0,   12.4,   0.00,   0.00, 1000.6,   98.6, -999.0
09-09-2022, 00:29:26,    312,    0.0,   12.5,   0.00,   0.00, 1000.6,   98.6, -999.0
09-09-2022, 00:29:36,    312,    0.0,   12.4,   0.00,   0.00, 1000.6,   98.6, -999.0
09-09-2022, 00:29:46,    312,    0.0,   12.5,   0.00,   0.00, 1000.6,   98.6, -999.0
09-09-2022, 00:29:56,    312,    0.0,   12.4,   0.00,   0.00, 1000.6,   98.6, -999.0
09-09-2022, 00:30:06,    312,    0.0,   12.4,   0.00,   0.00, 1000.6,   98.6, -999.0
09-09-2022, 00:30:16,    312,    0.0,   12.4,   0.00,   0.00, 1000.6,   98.7, -999.0
09-09-2022, 00:30:26,    312,    0.0,   12.4,   0.00,   0.00, 1000.6,   98.6, -999.0
09-09-2022, 00:30:36,    312,    0.0,   12.5,   0.00,   0.00, 1000.6,   98.6, -999.0
09-09-2022, 00:30:46,    312,    0.0,   12.5,   0.00,   0.00, 1000.7,   98.6, -999.0
09-09-2022, 00:30:55,    312,    0.0,   12.5,   0.00,   0.00, 1000.6,   98.6, -999.0
09-09-2022, 00:31:06,    312,    0.0,   12.5,   0.00,   0.00, 1000.6,   98.7, -999.0
09-09-2022, 00:31:16,    312,    0.0,   12.4,   0.00,   0.01, 1000.6,   98.6, -999.0
09-09-2022, 00:31:25,    312,    0.0,   12.5,   0.00,   0.00, 1000.7,   98.6, -999.0
09-09-2022, 00:31:35,    312,    0.0,   12.5,   0.00,   0.00, 1000.6,   98.6, -999.0
09-09-2022, 00:31:46,    312,    0.0,   12.5,   0.00,   0.00, 1000.6,   98.6, -999.0
09-09-2022, 00:31:55,    312,    0.0,   12.4,   0.00,   0.00, 1000.6,   98.6, -999.0
09-09-2022, 00:32:05,    312,    0.0,   12.4,   0.00,   0.00, 1000.6,   98.6, -999.0
09-09-2022, 00:32:15,    312,    0.0,   12.5,   0.00,   0.00, 1000.6,   98.7, -999.0
09-09-2022, 00:32:25,    312,    0.0,   12.5,   0.00,   0.00, 1000.6,   98.6, -999.0
09-09-2022, 00:32:35,    312,    0.0,   12.5,   0.00,   0.00, 1000.6,   98.6, -999.0
09-09-2022, 00:32:45,    312,    0.0,   12.5,   0.00,   0.00, 1000.6,   98.6, -999.0
09-09-2022, 00:32:55,    309,    0.0,   12.5,   0.00,   0.00, 1000.6,   98.6, -999.0
09-09-2022, 00:33:05,    312,    0.0,   12.5,   0.00,   0.00, 1000.6,   98.6, -999.0
09-09-2022, 00:33:15,    312,    0.0,   12.4,   0.00,   0.00, 1000.6,   98.6, -999.0
09-09-2022, 00:33:25,    312,    0.0,   12.4,   0.00,   0.00, 1000.6,   98.6, -999.0
09-09-2022, 00:33:35,    312,    0.0,   12.4,   0.00,   0.01, 1000.6,   98.6, -999.0
09-09-2022, 00:33:45,    312,    0.0,   12.4,   0.00,   0.00, 1000.6,   98.6, -999.0
09-09-2022, 00:33:55,    312,    0.0,   12.4,   0.00,   0.00, 1000.6,   98.6, -999.0
09-09-2022, 00:34:05,    312,    0.0,   12.4,   0.00,   0.00, 1000.6,   98.7, -999.0
09-09-2022, 00:34:15,    312,    0.0,   12.4,   0.00,   0.00, 1000.6,   98.6, -999.0
09-09-2022, 00:34:24,    312,    0.0,   12.5,   0.00,   0.00, 1000.6,   98.7, -999.0
09-09-2022, 00:34:34,    312,    0.0,   12.4,   0.00,   0.00, 1000.7,   98.6, -999.0
09-09-2022, 00:34:45,    312,    0.0,   12.4,   0.00,   0.00, 1000.6,   98.6, -999.0
09-09-2022, 00:34:54,    312,    0.0,   12.4,   0.00,   0.01, 1000.6,   98.6, -999.0
09-09-2022, 00:35:04,    312,    0.0,   12.3,   0.00,   0.00, 1000.7,   98.6, -999.0
09-09-2022, 00:35:14,    312,    0.0,   12.4,   0.00,   0.00, 1000.6,   98.7, -999.0
09-09-2022, 00:35:24,    312,    0.0,   12.4,   0.00,   0.00, 1000.7,   98.6, -999.0
09-09-2022, 00:35:34,    312,    0.0,   12.4,   0.00,   0.01, 1000.7,   98.6, -999.0
09-09-2022, 00:35:44,    312,    0.0,   12.3,   0.00,   0.00, 1000.7,   98.6, -999.0
09-09-2022, 00:35:54,    312,    0.0,   12.3,   0.00,   0.00, 1000.6,   98.7, -999.0
09-09-2022, 00:36:04,    311,    0.0,   12.4,   0.00,   0.00, 1000.7,   98.6, -999.0
09-09-2022, 00:36:14,    312,    0.0,   12.3,   0.00,   0.00, 1000.7,   98.6, -999.0
09-09-2022, 00:36:24,    312,    0.0,   12.3,   0.00,   0.01, 1000.7,   98.7, -999.0
09-09-2022, 00:36:34,    312,    0.0,   12.3,   0.00,   0.00, 1000.6,   98.6, -999.0
09-09-2022, 00:36:44,    312,    0.0,   12.4,   0.00,   0.00, 1000.7,   98.6, -999.0
09-09-2022, 00:36:54,    309,    0.0,   12.3,   0.00,   0.00, 1000.7,   98.6, -999.0
09-09-2022, 00:37:03,    312,    0.0,   12.3,   0.00,   0.00, 1000.7,   98.6, -999.0
09-09-2022, 00:37:14,    312,    0.0,   12.4,   0.00,   0.00, 1000.7,   98.7, -999.0
09-09-2022, 00:37:24,    312,    0.0,   12.2,   0.00,   0.00, 1000.7,   98.6, -999.0
09-09-2022, 00:37:33,    312,    0.0,   12.4,   0.00,   0.00, 1000.7,   98.6, -999.0
09-09-2022, 00:37:43,    312,    0.0,   12.4,   0.00,   0.00, 1000.7,   98.6, -999.0
09-09-2022, 00:37:53,    312,    0.0,   12.4,   0.00,   0.00, 1000.7,   98.6, -999.0
09-09-2022, 00:38:03,    312,    0.0,   12.4,   0.00,   0.01, 1000.7,   98.7, -999.0
09-09-2022, 00:38:13,    312,    0.0,   12.4,   0.00,   0.00, 1000.7,   98.6, -999.0
09-09-2022, 00:38:23,    313,    0.0,   12.4,   0.00,   0.00, 1000.7,   98.6, -999.0
09-09-2022, 00:38:33,    312,    0.0,   12.4,   0.00,   0.00, 1000.7,   98.7, -999.0
09-09-2022, 00:38:43,    312,    0.0,   12.3,   0.00,   0.00, 1000.7,   98.6, -999.0
09-09-2022, 00:38:53,    312,    0.0,   12.3,   0.00,   0.00, 1000.7,   98.6, -999.0
09-09-2022, 00:39:03,    312,    0.0,   12.4,   0.00,   0.00, 1000.7,   98.6, -999.0
09-09-2022, 00:39:13,    312,    0.0,   12.4,   0.00,   0.00, 1000.7,   98.6, -999.0
09-09-2022, 00:39:23,    312,    0.0,   12.4,   0.00,   0.00, 1000.7,   98.6, -999.0
09-09-2022, 00:39:33,    312,    0.0,   12.4,   0.00,   0.00, 1000.7,   98.7, -999.0
09-09-2022, 00:39:43,    310,    0.0,   12.4,   0.00,   0.00, 1000.7,   98.6, -999.0
09-09-2022, 00:39:53,    312,    0.0,   12.4,   0.00,   0.00, 1000.7,   98.7, -999.0
09-09-2022, 00:40:03,    312,    0.0,   12.4,   0.00,   0.01, 1000.7,   98.6, -999.0
09-09-2022, 00:40:12,    312,    0.0,   12.4,   0.00,   0.00, 1000.6,   98.7, -999.0
09-09-2022, 00:40:23,    312,    0.0,   12.4,   0.00,   0.00, 1000.7,   98.6, -999.0
09-09-2022, 00:40:32,    312,    0.0,   12.3,   0.00,   0.00, 1000.6,   98.6, -999.0
09-09-2022, 00:40:42,    312,    0.0,   12.3,   0.00,   0.00, 1000.6,   98.6, -999.0
09-09-2022, 00:40:52,    312,    0.0,   12.3,   0.00,   0.00, 1000.7,   98.6, -999.0
09-09-2022, 00:41:02,    312,    0.0,   12.3,   0.00,   0.00, 1000.6,   98.6, -999.0
09-09-2022, 00:41:12,    312,    0.0,   12.3,   0.00,   0.00, 1000.7,   98.6, -999.0
09-09-2022, 00:41:22,    312,    0.0,   12.3,   0.00,   0.01, 1000.7,   98.6, -999.0
09-09-2022, 00:41:32,    312,    0.0,   12.4,   0.00,   0.00, 1000.7,   98.6, -999.0
09-09-2022, 00:41:42,    312,    0.0,   12.4,   0.00,   0.00, 1000.7,   98.6, -999.0
09-09-2022, 00:41:52,    312,    0.0,   12.3,   0.00,   0.00, 1000.7,   98.6, -999.0
09-09-2022, 00:42:02,    312,    0.0,   12.3,   0.00,   0.00, 1000.7,   98.6, -999.0
09-09-2022, 00:42:12,    312,    0.0,   12.3,   0.00,   0.00, 1000.7,   98.6, -999.0
09-09-2022, 00:42:22,    312,    0.0,   12.3,   0.00,   0.00, 1000.7,   98.6, -999.0
09-09-2022, 00:42:32,    312,    0.0,   12.3,   0.00,   0.00, 1000.7,   98.6, -999.0
09-09-2022, 00:42:42,    312,    0.0,   12.3,   0.00,   0.00, 1000.7,   98.6, -999.0
09-09-2022, 00:42:52,    312,    0.0,   12.3,   0.00,   0.00, 1000.7,   98.7, -999.0
09-09-2022, 00:43:02,    312,    0.0,   12.3,   0.00,   0.00, 1000.7,   98.6, -999.0
09-09-2022, 00:43:11,    312,    0.0,   12.4,   0.00,   0.00, 1000.7,   98.6, -999.0
09-09-2022, 00:43:22,    312,    0.0,   12.4,   0.00,   0.00, 1000.7,   98.6, -999.0
09-09-2022, 00:43:32,    312,    0.0,   12.4,   0.00,   0.00, 1000.7,   98.6, -999.0
09-09-2022, 00:43:41,    312,    0.0,   12.4,   0.00,   0.00, 1000.7,   98.6, -999.0
09-09-2022, 00:43:51,    312,    0.0,   12.3,   0.00,   0.00, 1000.7,   98.6, -999.0
09-09-2022, 00:44:02,    312,    0.0,   12.4,   0.00,   0.00, 1000.7,   98.7, -999.0
09-09-2022, 00:44:11,    312,    0.0,   12.3,   0.00,   0.00, 1000.6,   98.6, -999.0
09-09-2022, 00:44:21,    312,    0.0,   12.4,   0.00,   0.00, 1000.7,   98.7, -999.0
09-09-2022, 00:44:31,    312,    0.0,   12.3,   0.00,   0.00, 1000.7,   98.6, -999.0
09-09-2022, 00:44:41,    312,    0.0,   12.4,   0.00,   0.00, 1000.7,   98.7, -999.0
09-09-2022, 00:44:51,    312,    0.0,   12.4,   0.00,   0.00, 1000.7,   98.6, -999.0
09-09-2022, 00:45:01,    312,    0.0,   12.4,   0.00,   0.00, 1000.7,   98.6, -999.0
09-09-2022, 00:45:11,    312,    0.0,   12.3,   0.00,   0.00, 1000.7,   98.6, -999.0
09-09-2022, 00:45:21,    312,    0.0,   12.4,   0.00,   0.00, 1000.7,   98.6, -999.0
09-09-2022, 00:45:31,    312,    0.0,   12.4,   0.00,   0.00, 1000.7,   98.6, -999.0
09-09-2022, 00:45:41,    312,    0.0,   12.4,   0.00,   0.00, 1000.7,   98.6, -999.0
09-09-2022, 00:45:51,    312,    0.0,   12.4,   0.00,   0.00, 1000.7,   98.6, -999.0
09-09-2022, 00:46:01,    312,    0.0,   12.4,   0.00,   0.00, 1000.7,   98.6, -999.0
09-09-2022, 00:46:11,    312,    0.0,   12.5,   0.00,   0.00, 1000.7,   98.7, -999.0
09-09-2022, 00:46:20,    312,    0.0,   12.4,   0.00,   0.00, 1000.7,   98.6, -999.0
09-09-2022, 00:46:31,    312,    0.0,   12.4,   0.00,   0.00, 1000.7,   98.6, -999.0
09-09-2022, 00:46:40,    312,    0.0,   12.4,   0.00,   0.00, 1000.7,   98.6, -999.0